When you browse on this site, cookies collect data to enhance your experience and personalize the content and advertising you see.
Visit our Privacy Policy to learn more. By continuing to use the site, you agree to this use of cookies and data.
  • en France
  • Liste des pays
  • À 7 jours
  • Température de l'eau
  • Carte satellitaire
  • Carte météo
  • Widgets météo
  • user-avatar
    Se connecter

    Météo par heure à Haskovo

    Ce jour, 23 Mars, Samedi

    Heure Température Précipitation Vent Pression Humidité
    00:00 +9°C° 0 mm 1 m/s 748 mmHg 68%
    01:00 +8°C° 0 mm 0 m/s 748 mmHg 70%
    02:00 +7°C° 0 mm 0 m/s 747 mmHg 71%
    03:00 +8°C° 0 mm 1 m/s 747 mmHg 71%
    04:00 +8°C° 0 mm 1 m/s 747 mmHg 72%
    05:00 +8°C° 0 mm 1 m/s 747 mmHg 72%
    06:00 +9°C° 0 mm 1 m/s 747 mmHg 70%
    07:00 +9°C° 0 mm 1 m/s 747 mmHg 67%
    08:00 +10°C° 0 mm 2 m/s 747 mmHg 62%
    09:00 +12°C° 0 mm 2 m/s 747 mmHg 58%
    10:00 +14°C° 0 mm 2 m/s 747 mmHg 53%
    11:00 +14°C° 0 mm 3 m/s 746 mmHg 48%
    12:00 +16°C° 0 mm 2 m/s 746 mmHg 46%
    13:00 +17°C° 0 mm 2 m/s 746 mmHg 45%
    14:00 +17°C° 0 mm 2 m/s 746 mmHg 43%
    15:00 +17°C° 0 mm 2 m/s 745 mmHg 46%
    16:00 +16°C° 0 mm 3 m/s 745 mmHg 49%
    17:00 +16°C° 0 mm 3 m/s 745 mmHg 52%
    18:00 +13°C° 0 mm 4 m/s 745 mmHg 53%
    19:00 +12°C° 0 mm 5 m/s 745 mmHg 55%
    20:00 +9°C° 0 mm 5 m/s 746 mmHg 57%
    21:00 +10°C° 0 mm 4 m/s 746 mmHg 51%
    22:00 +8°C° 0 mm 4 m/s 747 mmHg 45%
    23:00 +9°C° 0 mm 3 m/s 747 mmHg 39%

    Demain, 24 Mars, Dimanche

    Heure Température Précipitation Vent Pression Humidité
    00:00 +9°C° 0 mm 2 m/s 747 mmHg 41%
    01:00 +9°C° 0 mm 1 m/s 747 mmHg 42%
    02:00 +9°C° 0 mm 1 m/s 747 mmHg 43%
    03:00 +9°C° 0 mm 1 m/s 747 mmHg 43%
    04:00 +9°C° 0 mm 1 m/s 747 mmHg 42%
    05:00 +8°C° 0 mm 1 m/s 747 mmHg 42%
    06:00 +9°C° 0 mm 1 m/s 747 mmHg 43%
    07:00 +9°C° 0 mm 1 m/s 747 mmHg 43%
    08:00 +9°C° 0 mm 1 m/s 747 mmHg 44%
    09:00 +10°C° 0 mm 2 m/s 747 mmHg 43%
    10:00 +12°C° 0 mm 2 m/s 747 mmHg 41%
    11:00 +12°C° 0 mm 3 m/s 746 mmHg 39%
    12:00 +13°C° 0 mm 3 m/s 746 mmHg 37%
    13:00 +14°C° 0 mm 3 m/s 746 mmHg 34%
    14:00 +16°C° 0 mm 3 m/s 745 mmHg 31%
    15:00 +16°C° 0 mm 3 m/s 745 mmHg 31%
    16:00 +16°C° 0 mm 2 m/s 744 mmHg 31%
    17:00 +16°C° 0 mm 2 m/s 744 mmHg 31%
    18:00 +14°C° 0 mm 2 m/s 744 mmHg 35%
    19:00 +12°C° 0 mm 2 m/s 744 mmHg 39%
    20:00 +10°C° 0 mm 1 m/s 744 mmHg 44%
    21:00 +10°C° 0 mm 1 m/s 744 mmHg 44%
    22:00 +9°C° 0 mm 1 m/s 744 mmHg 45%
    23:00 +8°C° 0 mm 1 m/s 744 mmHg 46%

    Après-demain, 25 Mars, Lundi

    Heure Température Précipitation Vent Pression Humidité
    00:00 +8°C° 0 mm 1 m/s 744 mmHg 48%
    01:00 +8°C° 0 mm 1 m/s 744 mmHg 49%
    02:00 +7°C° 0 mm 1 m/s 744 mmHg 51%
    03:00 +7°C° 0 mm 1 m/s 743 mmHg 52%
    04:00 +6°C° 0 mm 1 m/s 743 mmHg 53%
    05:00 +5°C° 0 mm 0 m/s 742 mmHg 55%
    06:00 +6°C° 0 mm 0 m/s 742 mmHg 53%
    07:00 +7°C° 0 mm 0 m/s 742 mmHg 50%
    08:00 +8°C° 0 mm 0 m/s 742 mmHg 48%
    09:00 +11°C° 0 mm 1 m/s 742 mmHg 44%
    10:00 +14°C° 0 mm 1 m/s 741 mmHg 39%
    11:00 +16°C° 0 mm 1 m/s 741 mmHg 34%
    12:00 +17°C° 0 mm 2 m/s 741 mmHg 33%
    13:00 +18°C° 0 mm 2 m/s 740 mmHg 31%
    14:00 +19°C° 0 mm 2 m/s 739 mmHg 29%
    15:00 +19°C° 0 mm 3 m/s 739 mmHg 31%
    16:00 +19°C° 0 mm 3 m/s 738 mmHg 34%
    17:00 +18°C° 0 mm 3 m/s 738 mmHg 37%
    18:00 +16°C° 0 mm 3 m/s 738 mmHg 44%
    19:00 +13°C° 0 mm 3 m/s 738 mmHg 51%
    20:00 +11°C° 0 mm 3 m/s 738 mmHg 58%
    21:00 +10°C° 0 mm 2 m/s 738 mmHg 61%
    22:00 +10°C° 0 mm 2 m/s 738 mmHg 64%
    23:00 +9°C° 0 mm 2 m/s 738 mmHg 67%

    26 Mars, Mardi

    Heure Température Précipitation Vent Pression Humidité
    00:00 +10°C° 0 mm 1 m/s 738 mmHg 69%
    01:00 +9°C° 0 mm 1 m/s 738 mmHg 70%
    02:00 +9°C° 0 mm 1 m/s 737 mmHg 72%
    03:00 +8°C° 0 mm 1 m/s 737 mmHg 73%
    04:00 +7°C° 0 mm 0 m/s 737 mmHg 74%
    05:00 +7°C° 0 mm 0 m/s 737 mmHg 75%
    06:00 +8°C° 0 mm 0 m/s 737 mmHg 72%
    07:00 +9°C° 0 mm 0 m/s 738 mmHg 68%
    08:00 +10°C° 0 mm 0 m/s 738 mmHg 65%
    09:00 +13°C° 0 mm 1 m/s 738 mmHg 59%
    10:00 +15°C° 0 mm 2 m/s 739 mmHg 54%
    11:00 +17°C° 0 mm 3 m/s 739 mmHg 48%
    12:00 +17°C° 0 mm 3 m/s 739 mmHg 46%
    13:00 +18°C° 0 mm 3 m/s 739 mmHg 44%
    14:00 +19°C° 0 mm 4 m/s 739 mmHg 42%
    15:00 +17°C° 0.1 mm 4 m/s 740 mmHg 47%
    16:00 +15°C° 0.1 mm 4 m/s 740 mmHg 51%
    17:00 +14°C° 0.1 mm 5 m/s 740 mmHg 55%
    18:00 +12°C° 0.2 mm 4 m/s 741 mmHg 59%
    19:00 +11°C° 0.2 mm 3 m/s 741 mmHg 64%
    20:00 +10°C° 0.2 mm 2 m/s 742 mmHg 68%
    21:00 +9°C° 0.2 mm 3 m/s 743 mmHg 72%
    22:00 +9°C° 0.2 mm 3 m/s 743 mmHg 77%
    23:00 +8°C° 0.2 mm 3 m/s 743 mmHg 81%

    27 Mars, Mercredi

    Heure Température Précipitation Vent Pression Humidité
    00:00 +8°C° 0.3 mm 3 m/s 744 mmHg 81%
    01:00 +8°C° 0.3 mm 2 m/s 744 mmHg 81%
    02:00 +8°C° 0.3 mm 2 m/s 744 mmHg 82%
    03:00 +7°C° 0.3 mm 2 m/s 745 mmHg 81%
    04:00 +7°C° 0.3 mm 2 m/s 745 mmHg 81%
    05:00 +8°C° 0.3 mm 1 m/s 745 mmHg 81%
    06:00 +7°C° 0 mm 2 m/s 745 mmHg 77%
    07:00 +7°C° 0 mm 3 m/s 746 mmHg 73%
    08:00 +8°C° 0 mm 3 m/s 746 mmHg 69%
    09:00 +8°C° 0 mm 3 m/s 747 mmHg 64%
    10:00 +9°C° 0 mm 3 m/s 747 mmHg 59%
    11:00 +10°C° 0 mm 3 m/s 747 mmHg 54%
    12:00 +11°C° 0 mm 3 m/s 747 mmHg 52%
    13:00 +11°C° 0 mm 3 m/s 747 mmHg 50%
    14:00 +12°C° 0 mm 3 m/s 747 mmHg 48%
    15:00 +12°C° 0 mm 3 m/s 747 mmHg 49%
    16:00 +11°C° 0 mm 3 m/s 747 mmHg 50%
    17:00 +11°C° 0 mm 3 m/s 747 mmHg 51%
    18:00 +10°C° 0 mm 3 m/s 747 mmHg 53%
    19:00 +9°C° 0 mm 3 m/s 748 mmHg 55%
    20:00 +8°C° 0 mm 3 m/s 748 mmHg 58%
    21:00 +7°C° 0 mm 3 m/s 748 mmHg 59%
    22:00 +6°C° 0 mm 2 m/s 748 mmHg 61%
    23:00 +5°C° 0 mm 2 m/s 748 mmHg 63%

    28 Mars, Jeudi

    Heure Température Précipitation Vent Pression Humidité
    00:00 +5°C° 0 mm 2 m/s 748 mmHg 62%
    01:00 +5°C° 0 mm 2 m/s 749 mmHg 61%
    02:00 +5°C° 0 mm 2 m/s 749 mmHg 60%
    03:00 +5°C° 0 mm 2 m/s 749 mmHg 62%
    04:00 +4°C° 0 mm 2 m/s 749 mmHg 65%
    05:00 +3°C° 0 mm 2 m/s 749 mmHg 67%
    06:00 +4°C° 0 mm 2 m/s 749 mmHg 64%
    07:00 +4°C° 0 mm 3 m/s 750 mmHg 60%
    08:00 +5°C° 0 mm 3 m/s 750 mmHg 57%
    09:00 +6°C° 0 mm 4 m/s 750 mmHg 51%
    10:00 +7°C° 0 mm 4 m/s 750 mmHg 46%
    11:00 +8°C° 0 mm 5 m/s 751 mmHg 41%
    12:00 +9°C° 0 mm 5 m/s 750 mmHg 39%
    13:00 +9°C° 0 mm 6 m/s 750 mmHg 37%
    14:00 +10°C° 0 mm 6 m/s 750 mmHg 35%
    15:00 +9°C° 0 mm 6 m/s 750 mmHg 36%
    16:00 +9°C° 0 mm 6 m/s 750 mmHg 37%
    17:00 +9°C° 0 mm 6 m/s 750 mmHg 38%
    18:00 +7°C° 0 mm 5 m/s 750 mmHg 44%
    19:00 +5°C° 0 mm 4 m/s 750 mmHg 49%
    20:00 +3°C° 0 mm 3 m/s 751 mmHg 55%
    21:00 +3°C° 0 mm 2 m/s 751 mmHg 58%
    22:00 +3°C° 0 mm 2 m/s 751 mmHg 61%
    23:00 +3°C° 0 mm 1 m/s 751 mmHg 64%
    Voir plus